[Iaude] MPEC K113: 2024 KP [a=1.28,e=0.37,i=12.1,H=25.8]
    mpec at cfa.harvard.edu 
    mpec at cfa.harvard.edu
       
    Tue May 28 19:57:49 EDT 2024
    
    
  
M.P.E.C. 2024-K113                                 Issued 2024 May 28, 23:56 UT
     The Minor Planet Electronic Circulars contain information on unusual
         minor planets, routine data on comets and natural satellites,
         and occasional editorial announcements.  They are published
    on behalf of Division F of the International Astronomical Union by the
          Minor Planet Center, Smithsonian Astrophysical Observatory,
                          Cambridge, MA 02138, U.S.A.
			  
             Prepared using the Tamkin Foundation Computer Network
                              MPC at CFA.HARVARD.EDU
            URL https://www.minorplanetcenter.net/    ISSN 1523-6714
                                    2024 KP                                     
Observations:
     K24K00P  C2024 05 27.26570716 18 18.324+30 49 31.87         19.28gUEK113I41
     K24K00P  C2024 05 27.26605516 18 18.145+30 49 42.19         19.28gUEK113I41
     K24K00P* C2024 05 27.29842316 18 02.190+31 06 24.85         18.39RUEK113I41
     K24K00P  C2024 05 27.29877116 18 01.948+31 06 35.52         18.39RUEK113I41
     K24K00P  C2024 05 27.39429616 17 11.142+31 57 40.34         17.99RUEK113I41
     K24K00P  C2024 05 27.39464416 17 10.870+31 57 51.81         17.99RUEK113I41
     K24K00P  C2024 05 27.40172816 17 07.009+32 01 44.77         18.64gUEK113I41
     K24K00P  C2024 05 27.40207616 17 06.749+32 01 58.56         18.64gUEK113I41
     K24K00P  C2024 05 27.56823416 15 51.007+33 43 55.14               VEK113F51
     K24K00P  C2024 05 27.58150316 15 43.146+33 52 16.83         19.32GVEK113F51
     K24K00P  C2024 05 27.59426316 15 35.701+34 00 25.35               VEK113F51
     K24K00P  C2024 05 27.59452416 15 35.557+34 00 35.37         17.95GVEK113F51
     K24K00P KB2024 05 27.60478 16 16 29.01 +34 06 14.1          18.4 GVEK113P13
     K24K00P KB2024 05 27.61030 16 16 25.56 +34 10 02.4          18.7 GVEK113P13
     K24K00P KB2024 05 27.61615 16 16 21.87 +34 14 05.8          18.7 GVEK113P13
     K24K00P KB2024 05 27.62057 16 16 19.06 +34 17 10.3          18.8 GVEK113P13
     K24K00P KB2024 05 27.62605 16 16 15.54 +34 20 59.6          18.6 GVEK113P13
     K24K00P KC2024 05 27.85142 16 14 35.27 +37 12 49.6          18.5 VZEK113M38
     K24K00P KC2024 05 27.85256816 14 40.13 +37 13 49.6          18.8 GXEK113595
     K24K00P KC2024 05 27.85489 16 14 32.57 +37 15 52.2          19.1 VZEK113M38
     K24K00P KC2024 05 27.85823316 14 35.82 +37 18 49.7          18.2 GXEK113595
     K24K00P KC2024 05 27.85825 16 14 29.96 +37 18 50.1          18.6 VZEK113M38
     K24K00P KC2024 05 27.86389416 14 31.50 +37 23 51.0          18.2 GXEK113595
     K24K00P KC2024 05 27.87715916 14 21.09 +37 35 42.8          18.4 GXEK113595
     K24K00P KC2024 05 27.88282516 14 16.53 +37 40 49.6          18.6 GXEK113595
     K24K00P KC2024 05 27.88852716 14 11.87 +37 45 59.4          18.3 GXEK113595
     K24K00P KC2024 05 27.90584 16 13 52.95 +38 01 14.8          17.1 GXEK113G02
     K24K00P KC2024 05 27.90934 16 13 49.93 +38 04 28.6          17.2 GXEK113G02
     K24K00P KC2024 05 27.91287 16 13 46.90 +38 07 44.0          17.4 GXEK113G02
     K24K00P KC2024 05 27.91653 16 13 43.80 +38 11 05.7          16.5 GXEK113G02
     K24K00P KB2024 05 27.91884 16 13 44.53 +38 13 24.1          18.2 GXEK113G00
     K24K00P KB2024 05 27.92029 16 13 43.27 +38 14 45.0          18.4 GXEK113G00
     K24K00P KC2024 05 27.92130616 13 51.912+38 14 36.10         18.3 GVEK113Z80
     K24K00P KB2024 05 27.92174 16 13 42.00 +38 16 06.0          18.1 GXEK113G00
     K24K00P KC2024 05 27.92457816 13 49.906+38 17 39.16         18.6 GVEK113J95
     K24K00P KC2024 05 27.92543616 13 49.183+38 18 27.68         17.7 GVEK113J95
     K24K00P KC2024 05 27.92628916 13 48.466+38 19 16.03         18.3 GVEK113J95
     K24K00P KC2024 05 27.92714416 13 47.770+38 20 04.31         18.2 GVEK113J95
     K24K00P KC2024 05 27.92986016 13 47.85 +38 24 14.7          18.3 GXEK113958
     K24K00P KC2024 05 27.92992716 13 44.705+38 22 43.28         18.4 GVEK113Z80
     K24K00P KC2024 05 27.93448216 13 43.71 +38 28 38.6          17.9 GXEK113958
     K24K00P KC2024 05 27.93905716 13 39.68 +38 33 00.2          18.0 GXEK113958
     K24K00P KB2024 05 27.94715 16 13 19.37 +38 40 02.5          17.6 GXEK113G00
     K24K00P KB2024 05 27.94801 16 13 18.57 +38 40 52.2          18.4 GXEK113G00
     K24K00P KB2024 05 27.94888 16 13 17.77 +38 41 42.0          18.2 GXEK113G00
     K24K00P KB2024 05 28.13528 16 11 29.96 +42 02 42.6          17.6 GXEK113W42
     K24K00P KB2024 05 28.14109 16 11 22.82 +42 09 41.3          17.7 GXEK113W42
     K24K00P KB2024 05 28.14677 16 11 15.79 +42 16 33.0          17.8 GXEK113W42
     K24K00P mC2024 05 28.45086516 03 25.204+49 27 02.74         17.71GVEK113I52
     K24K00P mC2024 05 28.45096616 03 24.995+49 27 12.92         17.68GVEK113I52
     K24K00P mC2024 05 28.45106616 03 24.790+49 27 22.43         17.25GVEK113I52
     K24K00P mC2024 05 28.45116716 03 24.577+49 27 32.69         17.69GVEK113I52
     K24K00P KB2024 05 28.84836515 44 34.373+64 10 33.06         17.9 VZEK113K74
     K24K00P KB2024 05 28.85064615 44 18.890+64 17 06.29         17.6 VZEK113K74
     K24K00P KB2024 05 28.85292415 44 03.343+64 23 39.26         18.0 VZEK113K74
     K24K00P KC2024 05 28.85333315 44 07.947+64 26 43.56         17.6 GVEK113D63
     K24K00P KC2024 05 28.85536615 43 53.749+64 32 35.98         17.1 GVEK113D63
     K24K00P KC2024 05 28.85977 15 43 21.46 +64 45 24.3                VEK113104
     K24K00P KC2024 05 28.86459 15 42 46.24 +64 59 27.1          17.9 GVEK113104
     K24K00P KC2024 05 28.86632 15 42 33.21 +65 04 37.7          19.0 GXEK113K83
     K24K00P KC2024 05 28.86968 15 42 08.00 +65 14 27.4          18.6 GXEK113K83
     K24K00P KB2024 05 28.98096115 23 16.25 +70 56 52.0          17.9 GXEK113I93
     K24K00P KB2024 05 28.98260215 22 52.69 +71 02 09.6          18.3 GXEK113I93
     K24K00P KB2024 05 28.98419515 22 29.68 +71 07 16.6          17.4 GXEK113I93
Observer details:
104 San Marcello Pistoiese.  Observers P. Bacci, M. Maestripieri.  Measurer P.
    Bacci.  0.60-m f/4.0 reflector + CCD.
595 Farra d'Isonzo.  Observer E. Pettarin.  0.61-m f/4.5 reflector + CCD.
958 Observatoire de Dax.  Observers P. Dupouy, J. B. de Vanssay.  Measurer F.
    Losse.  0.43-m f/2.7 Reflector + CCD.
D63 G. Pascoli Observatory, Castelvecchio Pascoli (since June 2023).  Observer
    R. Bacci.  0.41-m f/3.75 Reflector + CCD.
F51 Pan-STARRS 1, Haleakala.  Observers J. Herman, T. Lowe, P. Minguez, A.
    Schultz, I. Smith.  Measurers K. Chambers, T. de Boer, J. Fairlamb, H.
    Gao, M. Huber, C.-C. Lin, E. Magnier, Y. Ramanjooloo, R. Wainscoat, R.
    Weryk.  1.8-m Ritchey-Chretien + CCD.
G00 AZM Martinsberg, Oed.  Observers M. Jaeger, E. Prosperi.  Measurer M.
    Jaeger.  0.40-m f/3.2 reflector + CMO.
G02 KYSUCE Observatory, Kysucke Nove Mesto.  Observer M. Urbanik.  0.40-m
    f/6.8 Corrected Dall-Kirkham + CCD.
I41 Palomar Mountain--ZTF.  Observers G. Helou, T. A. Prince, K.
    Venkataramani, Q.-Z. Ye, Z. T. F. Collaboration, D. Kulkarni.  Measurers
    D. A. Duev, H.-W. Lin, A. A. Mahabal, F. J. Masci, Q.-Z. Ye.  1.2-m f/2.4
    Schmidt + ZTF Camera.
I52 Steward Observatory, Mt. Lemmon Station.  Observer R. A. Kowalski.
    Measurers T. Beuden, V. F. Carvajal, D. Fay, J. B. Fazekas, D. C. Fuls, A.
    R. Gibbs, A. D. Grauer, H. Groeller, J. K. Hogan, R. A. Kowalski, S. M.
    Larson, G. J. Leonard, D. Rankin, R. L. Seaman, F. C. Shelly, K. W.
    Wierzchos.  1.0-m prime focus + CCD.
I93 St Pardon de Conques.  Observer F. Losse.  0.40-m f/3.7 reflector + CMO.
J95 Great Shefford.  Observer P. Birtwhistle.  0.41-m f/6.3 Schmidt-Cassegrain
    + CCD.
K74 Muensterschwarzach Observatory, Schwarzach.  Observer C. Gerhard.  0.30-m
    f/3.75 reflector + CMO.
K83 Beppe Forti Astronomical Observatory, Montelupo.  Observers M. Tombelli,
    A. Mazzanti.  Measurers M. Tombelli, F. Bernardi, A. Squilloni, F. Cheli.
    0.40-m f/8 Ritchey-Chretien + CCD.
M38 Harsona Observatory, Nyiregyhaza.  Observer T. Elek.  0.20-m f/3 reflector
    + CCD.
P13 Baihuashan Observatory, Beijing.  Observers Z. Wang, B. Liu.  Measurer Z.
    Wang.  0.28-m f/2.2 reflector + CMO.
W42 Mind's Eye Observatory, Vero Beach.  Observer J. T. Grage.  0.30-m f/3.3
    SCT + CMO.
Z80 Northolt Branch Observatory.  Observer G. Wells.  0.25-m f/8.0 Ritchey-
    Chretien + CCD.
Orbital elements:
2024 KP                                                  Earth MOID = 0.0053 AU
Epoch 2024 Mar. 31.0 TT = JDT 2460400.5                 MPC                     
M 281.82481              (2000.0)            P               Q                  
n   0.68037037     Peri.  253.51354     +0.77657889     +0.59849615             
a   1.2802824      Node    69.29811     -0.46735758     +0.75672287             
e   0.3664690      Incl.   12.14443     -0.42249511     +0.26300732             
P   1.45           H   25.84          G   0.15           U   6                  
Residuals in seconds of arc
240527 I41  0.7+  1.0+    240527 595  0.2-  0.1-    240527 G00  0.4-  1.2+
240527 I41  0.5+  0.7+    240527 595  0.1-  0.2-    240528 W42  0.5+  0.4+
240527 I41 (2.0+  0.1-)   240527 595  0.1-  0.1+    240528 W42  0.0   0.1+
240527 I41 (1.2+  0.2-)   240527 595  0.2-  0.0     240528 W42  0.2+  0.1+
240527 I41 (2.3+  0.8-)   240527 G02  0.0   0.3-    240528 I52  0.0   0.0
240527 I41 (1.3+  0.7-)   240527 G02  0.6-  0.5+    240528 I52  0.0   0.3+
240527 I41  1.0+  1.7-    240527 G02  0.7-  0.7+    240528 I52  0.1+  0.2-
240527 I41  0.1+  0.6+    240527 G02  0.1-  0.7-    240528 I52  0.0   0.1+
240527 F51  0.2-  0.2-    240527 G00  0.2-  1.0+    240528 K74  0.1+  0.7+
240527 F51 (0.0   1.1-)   240527 G00  0.2-  0.9+    240528 K74  0.2-  0.9+
240527 F51  0.1-  0.4-    240527 Z80  0.1-  0.1+    240528 K74  0.1+  0.5+
240527 F51  0.1-  0.4-    240527 G00  0.3-  0.9+    240528 D63  0.4+  0.4+
240527 P13  0.2+  0.4-    240527 J95  0.0   0.1+    240528 D63  0.7+  0.3+
240527 P13  0.0   0.7-    240527 J95  0.1-  0.1+    240528 104  0.2-  0.6-
240527 P13  0.2-  0.6-    240527 J95  0.2-  0.2+    240528 104  0.2-  0.0
240527 P13  0.1-  0.6-    240527 J95  0.0   0.1+    240528 K83  0.1+  0.4-
240527 P13  0.1-  0.8-    240527 958  0.2+  0.2-    240528 K83  1.0+  1.0-
240527 M38  0.4+  0.3-    240527 Z80  0.3-  0.0     240528 I93  0.1+  0.6+
240527 595  0.1-  0.1-    240527 958  0.7-  0.1+    240528 I93  0.1+  1.2+
240527 M38  0.1-  0.2-    240527 958  0.2-  0.3-    240528 I93  0.6+  0.2+
240527 595  0.5-  0.1-    240527 G00  0.1-  0.6+
240527 M38  0.3-  0.4+    240527 G00  0.3-  1.2+
Ephemeris:
2024 KP                  a,e,i = 1.28, 0.37, 12                  q = 0.8111
Date    TT    R. A. (2000) Decl.     Delta      r    Elong.  Phase     V
2024 04 28    16 21 22.4 +09 54 39   0.2312  1.1971   141.9    31.3    24.4
...
2024 05 13    16 25 26.1 +13 06 09   0.1170  1.1079   144.6    31.9    22.8
...
2024 05 21    16 24 59.9 +16 16 26   0.05970 1.0601   142.7    35.4    21.3
...
2024 05 27    16 19 11.1 +28 49 32   0.01791 1.0248   129.9    49.3    19.0
2024 05 28    16 12 43.7 +39 32 55   0.01140 1.0189   119.0    60.5    18.3
2024 05 29    15 19 41.7 +71 45 34   0.0061771.0131    86.0    93.7    18.2
...
2024 06 04    04 30 47.7 -03 46 11   0.03979 0.9791    26.6   152.4    27.7
...
2024 06 12    04 29 29.1 -07 47 07   0.09691 0.9361    33.5   143.3    27.9
...
2024 06 27    04 33 37.2 -06 57 17   0.2099  0.8678    40.5   130.4    27.9
A. U. Tomatic                (C) Copyright 2024 MPC           M.P.E.C. 2024-K113
    
    
More information about the Iaude
mailing list